Regional Weather Roundup
Issued by NWS Bismarck, ND

Home | Current Version | Previous Version | Text Only | Print | Product List | Glossary On
Versions: 1 2 3 4 5 6 7 8 9 10 11 12 13 14 15 16 17 18 19 20 21 22 23 24 25 26 27 28 29 30 31 32 33 34 35 36 37 38 39 40 41 42 43 44 45 46 47 48 49 50
269
ASUS43 KBIS 241802
RWRBIS

NWR BROADCAST TEXT
NATIONAL WEATHER SERVICE BISMARCK ND
100 PM CDT SAT JUN 24 2017

NOTE: "FAIR" INDICATES FEW OR NO CLOUDS BELOW 12,000 FEET WITH NO
SIGNIFICANT WEATHER AND/OR OBSTRUCTIONS TO VISIBILITY.


CITY           SKY/WX    TMP DP  RH WIND       PRES   REMARKS
WILLISTON      PTSUNNY   64  35  34 N18G31    30.29S
MINOT          CLOUDY    57  43  59 NW22G30   30.21R
MINOT AFB      CLOUDY    56  42  59 NW20G28   30.20R
BISMARCK       MOSUNNY   61  38  42 NW21G31   30.22R
DICKINSON      SUNNY     62  31  31 N20G36    30.25R
GARRISON         N/A     56  41  57 N20G29    30.21S
HETTINGER ARPT SUNNY     65  30  27 NW22G35   30.26S
JAMESTOWN      CLOUDY    57  41  55 NW20G31   30.12R
HAZEN          CLOUDY    57  37  47 N17G24    30.25S
LINTON           N/A    N/A N/A N/A NW18G29   30.21R
MANDAN         MOCLDY    57  37  47 NW22G32   30.22S
STANLEY        MOCLDY    55  39  54 N17G25    30.27R
TIOGA          MOCLDY    57  37  47 N23G33    30.27S
WATFORD CITY   FAIR      61  37  41 N18G28    30.27S
$$

CITY           SKY/WX    TMP DP  RH WIND       PRES   REMARKS
GRAND FORKS    LGT RAIN  55  53  93 W14G26    30.03R FOG
GRAND FORKS AF LGT RAIN  54  49  85 NW14G26   30.04S
DEVILS LAKE    CLOUDY    53  45  74 NW23G30   30.11R
FARGO          CLOUDY    60  44  55 NW18G25   30.05R
GRAFTON        CLOUDY    54  54 100 NW22      30.04R
GWINNER        MOCLDY    61  43  51 NW18G25   30.10S
LANGDON        CLOUDY    54  46  76 N23G32    30.08R
ROLLA            N/A     48  50 100 NW16G25   30.15R FOG
$$

CITY           SKY/WX    TMP DP  RH WIND       PRES   REMARKS
ABERDEEN       CLOUDY    63  41  44 NW20G29   30.14S
MOBRIDGE       SUNNY     68  36  30 NW24G32   30.16R
BUFFALO          N/A     66  35  31 NW18G36   30.21S
RAPID CITY     MOSUNNY   72  32  23 NW23G31   30.27S
GLASGOW        PTSUNNY   66  34  30 NW13      30.30S
SIDNEY         MOSUNNY   65  35  33 N10G28    30.29S
WOLF POINT     MOSUNNY   69  33  26 VRB7      30.29F
GLENDIVE       SUNNY     65  33  30 NW20      30.31R
MILES CITY     MOSUNNY   71  31  22 NW14G24   30.29S
BAKER          SUNNY     65  32  29 N14G23    30.31R
$$

CITY           SKY/WX    TMP DP  RH WIND       PRES   REMARKS
BILLINGS       MOSUNNY   70  35  27 N8        30.33F
GREAT FALLS    SUNNY     69  33  26 VRB7      30.33F
$$





USA.gov is the U.S. government's official web portal to all federal, state and local government web resources and services.